User: anonymous   Login
Location: Elk Horn Observatory
(36.6768°N, 80.8309°W)
Time: 07:37:58
(UTC-04:00)
Language:

Envisat - Orbit

View from above orbital plane
View from above orbital plane
View from above satellite
View from above satellite

Ground track
Ground track

The orbit data is extracted from the following two-line orbital elements,

1 27386U 02009A   21132.25580064  .00000029  00000-0  22978-4 0  9999
2 27386  98.1483 128.1631 0001297  85.9185 284.6493 14.38025100  5878
Epoch (UTC): 12 May 2021 06:08:21
Eccentricity: 0.0001297
inclination: 98.1483°
perigee height: 764 km
apogee height: 766 km
right ascension of ascending node: 128.1631°
argument of perigee: 85.9185°
revolutions per day: 14.38025100
mean anomaly at epoch: 284.6493°
orbit number at epoch: 587

The dashed part of the orbit path shows where the satellite is in the earth's shadow,  

DLR